Wind_Speed
23 25 27 29 31 32 33 34 33 33 32 31 30 29 29 28 27 27 26 26 25 25 25 26 26 25 23 23 22 21 19 18 17 16 14 13 11 10 9 8 10 12 15
24 26 28 29 31 33 35 36 37 37 37 36 35 34 33 33 32 32 31 31 30 30 29 29 29 29 28 27 26 24 23 22 20 19 17 16 15 13 12 11 11 11 13
21 23 25 27 29 31 33 35 37 38 39 40 39 39 38 38 37 36 36 35 35 34 33 33 32 32 32 31 30 28 27 25 24 22 21 20 18 17 15 14 13 13 13
18 19 20 22 24 26 28 30 32 34 36 37 39 40 40 40 40 40 40 39 39 38 37 36 36 35 35 35 35 33 31 29 28 26 24 23 22 20 19 18 16 16 15
18 20 21 22 23 25 27 28 30 31 32 34 35 37 39 40 40 41 41 42 42 41 40 40 39 38 38 38 38 38 36 34 32 30 28 27 25 24 22 21 20 19 18
20 21 23 24 26 27 29 31 32 34 35 36 37 38 39 40 41 41 42 42 43 43 43 43 42 41 41 41 41 41 40 39 37 34 32 30 29 28 26 24 23 22 21
20 22 23 25 27 29 30 32 34 35 37 38 40 41 42 43 44 44 44 44 44 45 45 45 45 44 43 43 42 43 43 42 41 38 36 34 33 32 30 28 27 26 25
23 25 27 28 30 32 34 35 37 38 40 41 42 43 44 45 46 47 48 48 48 48 47 47 47 46 46 45 44 44 44 44 43 42 40 38 37 36 34 32 31 29 28
28 30 33 35 37 39 41 42 43 44 45 46 47 47 48 48 49 49 49 50 51 51 52 51 50 49 49 48 47 46 45 45 45 45 44 43 41 39 37 35 34 33 31
34 37 40 43 45 47 49 51 52 53 54 54 54 54 54 54 53 53 53 53 53 53 53 54 54 54 52 52 50 49 48 47 47 47 47 46 45 43 41 39 37 36 34
40 44 47 50 52 55 57 58 60 61 62 62 62 62 61 61 60 59 58 57 56 56 56 55 55 56 57 56 55 53 52 50 49 49 49 49 48 46 44 42 40 39 38
46 50 53 56 59 61 63 65 67 68 69 69 70 69 68 67 67 66 64 63 61 60 59 58 58 57 58 59 59 58 56 54 53 53 52 52 51 48 46 44 43 42 40
51 55 58 61 64 67 69 71 73 74 75 75 76 76 75 74 72 71 70 69 68 66 64 63 61 61 60 60 60 61 60 59 58 57 56 55 54 52 49 47 46 45 43
56 60 63 66 69 72 74 76 77 78 79 80 80 81 80 79 77 75 74 73 72 72 70 67 66 65 63 63 62 62 62 63 62 61 60 58 57 55 53 50 48 47 46
61 65 69 72 74 76 78 79 80 81 81 82 82 83 83 82 81 80 78 77 76 75 74 73 71 69 68 66 65 65 64 64 64 64 63 61 60 59 57 55 52 51 49
67 70 73 76 78 80 81 82 82 83 83 84 84 85 85 85 85 83 81 79 78 77 77 77 76 74 72 71 69 68 67 66 65 65 65 64 63 62 61 59 57 55 53
71 75 77 79 81 83 84 85 86 87 88 87 86 83 81 79 79 78 76 76 75 75 76 78 79 79 77 75 73 72 70 70 67 65 65 66 65 64 64 62 60 58 57
75 78 80 82 83 84 85 86 87 86 83 79 74 70 66 64 64 64 64 65 66 67 70 73 77 80 80 79 78 76 75 73 71 69 67 66 65 64 65 66 64 62 60
78 81 83 84 84 85 85 83 80 75 70 65 61 58 56 54 53 53 53 54 56 58 62 66 71 76 80 82 82 80 79 77 75 73 70 67 66 65 64 66 67 65 63
81 82 84 85 85 84 80 75 70 65 62 58 56 55 53 52 51 50 49 49 49 50 53 59 65 71 78 82 84 84 82 81 79 77 75 71 67 66 64 63 66 68 66
82 83 84 84 83 80 75 71 67 63 60 58 57 56 55 54 53 53 51 50 49 48 48 50 55 64 73 80 84 86 85 84 82 81 79 76 71 68 66 63 63 67 68
83 83 83 82 80 77 73 70 68 65 62 60 59 58 57 57 56 56 54 53 52 50 49 49 50 53 61 73 82 87 87 86 87 85 83 80 77 72 69 66 64 63 68
83 83 82 80 77 74 71 68 64 61 59 56 54 53 53 54 55 56 56 56 55 53 52 51 50 50 52 58 72 83 89 90 89 87 86 84 82 79 74 69 67 64 65
82 82 80 77 74 71 67 64 60 57 55 53 51 49 48 48 48 50 53 55 56 56 55 53 52 51 50 51 58 71 84 90 92 90 88 87 85 82 78 75 70 67 65
81 80 77 74 70 66 63 61 59 57 55 53 51 50 48 46 46 46 47 49 52 55 57 57 55 53 51 50 51 59 73 85 91 93 90 88 87 84 80 78 75 72 69
80 78 74 70 66 63 62 61 59 58 57 54 52 50 47 45 44 44 44 45 46 50 53 56 56 55 53 51 50 52 60 75 87 92 92 90 89 86 81 77 77 76 74
Wind_Direction
269 267 266 264 263 261 259 258 257 257 258 258 259 258 258 259 259 259 259 259 258 257 254 251 249 248 245 240 236 233 231 231 232 235 239 243 246 247 244 242 242 239 235
278 275 274 271 270 268 267 265 264 263 262 262 261 260 259 259 259 259 260 259 258 257 255 253 251 248 246 244 240 236 232 231 232 234 237 241 245 248 248 244 241 238 236
291 289 286 282 279 277 274 272 271 270 269 268 266 265 264 263 261 260 260 260 259 258 257 255 253 250 247 245 243 240 236 234 233 235 236 239 242 245 247 246 243 238 235
311 307 303 299 294 290 287 285 282 279 276 274 271 269 267 266 265 264 262 261 259 258 258 256 255 253 249 246 244 242 240 237 236 235 236 237 241 243 245 246 245 240 236
319 315 311 308 304 300 297 293 290 287 283 280 277 274 272 269 267 266 265 263 261 258 257 256 255 254 251 248 245 242 241 239 238 237 236 237 239 241 242 244 245 243 240
321 317 313 309 304 300 297 293 291 288 286 283 281 278 276 273 271 268 265 264 262 261 258 256 254 253 251 249 247 244 242 240 239 238 237 237 238 240 241 242 245 245 243
322 317 312 308 304 301 297 294 291 288 286 283 281 279 277 275 272 270 268 265 263 261 260 257 255 252 251 249 247 246 243 241 240 239 238 237 238 240 241 241 243 244 244
322 318 313 309 306 302 299 296 293 290 287 285 282 280 277 275 273 271 269 267 264 262 260 258 256 254 251 249 248 246 244 241 240 239 238 238 238 239 240 241 242 243 244
322 318 315 312 308 305 302 300 297 294 291 289 286 283 280 277 275 272 269 267 265 262 260 258 256 255 253 251 248 246 244 242 240 238 238 238 238 239 240 241 242 242 243
321 319 316 313 310 307 305 302 299 296 293 291 288 286 283 281 278 275 272 269 266 263 261 258 255 254 253 251 249 247 245 243 240 238 237 237 238 239 239 240 241 242 242
319 317 314 312 310 307 305 302 300 297 294 292 289 286 284 281 279 277 274 272 268 265 262 259 256 253 251 250 249 247 245 243 241 239 237 237 238 238 238 238 239 241 241
316 315 313 311 308 306 303 301 299 297 294 292 289 287 284 281 279 276 274 272 269 267 264 260 257 254 251 249 248 246 245 243 241 239 237 237 237 237 237 237 237 239 239
313 312 310 308 306 304 302 300 297 295 293 291 288 286 284 281 278 275 272 270 268 266 264 261 258 255 252 249 247 245 244 243 241 239 237 236 236 235 235 234 235 236 237
311 310 308 306 304 303 301 299 297 295 293 290 288 286 284 281 279 275 271 268 266 264 262 260 258 255 252 249 247 245 244 242 241 239 238 235 235 235 234 233 233 234 236
311 309 308 306 305 303 302 299 297 295 292 290 287 285 282 280 278 274 271 267 264 262 259 257 256 254 252 249 246 245 243 242 241 239 238 236 234 234 234 233 233 233 234
311 310 309 308 307 305 303 301 299 296 293 290 287 284 282 279 277 274 272 268 264 260 257 254 252 251 250 248 246 244 242 241 241 239 238 237 234 233 233 233 232 232 233
312 311 311 309 308 307 305 303 301 298 295 293 291 288 286 282 280 277 274 271 267 262 257 253 249 247 246 246 244 243 241 240 240 239 238 237 235 232 232 232 232 232 232
315 314 313 311 310 309 307 305 302 301 300 298 294 291 287 284 281 277 274 272 268 264 259 254 249 246 243 242 241 240 239 239 238 238 237 237 236 234 231 230 230 231 232
317 316 315 314 312 310 308 307 306 305 303 299 294 290 287 284 280 277 274 271 269 265 260 254 249 245 242 240 239 238 237 237 236 237 236 237 237 235 233 231 229 229 231
319 319 317 316 314 312 311 311 309 307 303 299 294 290 287 284 281 278 275 272 270 266 262 255 249 244 240 238 237 236 235 235 235 235 235 235 236 235 234 233 230 228 229
322 320 319 317 315 314 313 312 310 306 303 298 294 290 287 284 280 277 274 272 269 267 264 259 253 246 241 237 235 234 233 232 233 233 233 233 233 235 234 234 232 229 227
323 321 320 318 317 317 316 314 311 308 305 301 297 292 288 284 280 276 273 270 267 265 264 262 258 252 246 240 236 233 231 230 230 231 232 232 231 232 233 233 233 231 228
324 323 322 321 321 320 318 316 314 312 310 306 302 298 293 288 282 277 273 269 266 264 262 260 259 256 252 246 239 234 230 228 228 228 229 230 230 230 231 231 232 231 230
326 325 324 324 324 323 322 321 320 318 315 312 309 305 300 295 289 282 275 270 266 263 260 258 257 256 253 250 246 239 232 229 227 226 227 228 229 229 229 229 229 230 231
327 327 327 327 327 326 325 325 323 321 319 317 314 310 307 302 296 290 282 275 268 264 260 257 256 255 253 252 249 244 237 231 227 225 224 226 227 228 228 229 229 228 229
329 329 330 330 330 329 328 327 325 324 322 319 317 314 311 306 301 295 288 281 274 267 261 257 254 253 252 251 251 248 242 236 229 225 223 223 225 225 225 226 228 228 228
Height
5867 5866 5865 5865 5864 5863 5863 5863 5862 5862 5861 5861 5861 5860 5860 5860 5860 5861 5861 5861 5861 5861 5861 5861 5861 5861 5861 5862 5862 5862 5862 5863 5863 5864 5866 5867 5868 5869 5871 5872 5873 5875 5876
5863 5862 5862 5861 5860 5859 5859 5858 5858 5857 5856 5856 5855 5855 5854 5854 5854 5855 5855 5855 5856 5856 5856 5856 5856 5857 5857 5857 5858 5858 5859 5859 5860 5861 5863 5864 5865 5866 5868 5870 5871 5872 5874
5860 5859 5858 5857 5856 5855 5854 5853 5852 5851 5851 5850 5850 5849 5849 5848 5848 5848 5848 5848 5849 5849 5850 5851 5851 5852 5852 5853 5853 5854 5855 5855 5857 5858 5859 5860 5862 5863 5864 5866 5868 5870 5871
5858 5856 5855 5854 5852 5851 5849 5848 5847 5845 5844 5843 5842 5842 5842 5841 5841 5841 5841 5841 5841 5842 5843 5844 5844 5845 5846 5847 5848 5849 5850 5851 5852 5854 5855 5856 5858 5859 5861 5863 5865 5867 5868
5855 5854 5852 5851 5849 5847 5845 5843 5841 5839 5838 5836 5835 5834 5833 5833 5833 5833 5833 5833 5833 5834 5834 5835 5836 5838 5839 5840 5841 5842 5844 5845 5847 5848 5850 5852 5853 5854 5856 5858 5860 5862 5864
5853 5851 5849 5847 5845 5843 5840 5838 5835 5833 5831 5829 5827 5826 5825 5824 5823 5823 5824 5824 5824 5825 5825 5826 5827 5829 5830 5832 5833 5835 5836 5838 5840 5842 5844 5846 5848 5849 5851 5854 5856 5858 5860
5850 5848 5846 5843 5840 5838 5835 5832 5829 5826 5824 5821 5819 5817 5816 5815 5814 5814 5814 5814 5814 5815 5816 5816 5817 5819 5820 5822 5824 5826 5828 5830 5832 5835 5837 5840 5842 5843 5846 5848 5850 5853 5855
5847 5845 5843 5840 5837 5833 5830 5827 5823 5820 5817 5814 5811 5809 5807 5805 5804 5803 5803 5803 5803 5804 5805 5806 5807 5809 5810 5812 5814 5816 5819 5821 5824 5827 5829 5832 5834 5836 5839 5842 5844 5847 5849
5845 5842 5839 5835 5832 5828 5824 5820 5817 5813 5809 5806 5803 5800 5797 5795 5793 5792 5791 5791 5791 5792 5793 5794 5796 5798 5800 5802 5803 5806 5808 5811 5814 5817 5820 5823 5826 5829 5831 5834 5837 5840 5843
5839 5836 5832 5828 5824 5820 5815 5811 5807 5803 5799 5796 5793 5790 5787 5785 5782 5781 5780 5779 5778 5778 5779 5781 5784 5785 5788 5790 5792 5794 5797 5800 5804 5807 5810 5814 5817 5820 5823 5827 5830 5833 5836
5833 5828 5824 5819 5814 5809 5804 5799 5794 5789 5785 5781 5778 5775 5773 5771 5769 5768 5766 5765 5765 5765 5766 5767 5769 5771 5774 5777 5780 5782 5785 5789 5792 5796 5800 5803 5807 5811 5814 5818 5822 5825 5829
5825 5820 5814 5808 5803 5797 5791 5785 5780 5774 5769 5765 5761 5758 5755 5753 5752 5751 5750 5749 5750 5750 5751 5752 5754 5756 5759 5762 5766 5769 5773 5777 5780 5784 5788 5792 5796 5800 5804 5809 5812 5816 5820
5817 5811 5804 5798 5791 5784 5777 5770 5764 5758 5752 5746 5741 5738 5735 5733 5732 5731 5730 5730 5731 5732 5735 5737 5738 5740 5743 5747 5750 5754 5759 5763 5767 5771 5776 5781 5785 5789 5794 5798 5802 5807 5811
5808 5801 5793 5785 5777 5769 5761 5753 5746 5738 5732 5725 5720 5715 5712 5710 5708 5708 5707 5708 5709 5712 5715 5718 5720 5723 5727 5730 5734 5738 5743 5748 5753 5758 5763 5769 5773 5778 5782 5787 5792 5797 5801
5797 5788 5779 5770 5761 5752 5743 5734 5725 5717 5710 5703 5696 5691 5687 5684 5683 5682 5682 5683 5685 5688 5693 5696 5699 5704 5708 5712 5717 5722 5727 5731 5737 5743 5749 5755 5760 5765 5770 5776 5781 5786 5791
5784 5775 5764 5754 5743 5733 5722 5712 5703 5694 5685 5677 5671 5665 5661 5658 5655 5654 5654 5655 5658 5662 5667 5671 5675 5681 5687 5693 5699 5704 5710 5715 5721 5727 5733 5739 5746 5752 5757 5764 5770 5775 5781
5771 5759 5748 5736 5724 5712 5701 5689 5677 5667 5658 5650 5643 5637 5633 5630 5628 5627 5626 5627 5630 5634 5639 5644 5650 5657 5664 5671 5678 5685 5691 5698 5705 5711 5717 5723 5731 5738 5744 5750 5757 5764 5769
5755 5743 5730 5717 5705 5692 5679 5666 5654 5642 5632 5624 5618 5612 5608 5605 5603 5603 5602 5602 5604 5607 5611 5617 5623 5631 5639 5647 5655 5663 5671 5679 5687 5694 5701 5708 5715 5722 5729 5736 5744 5751 5758
5739 5726 5712 5698 5685 5671 5658 5644 5632 5621 5612 5604 5598 5593 5589 5586 5584 5582 5581 5581 5581 5583 5585 5590 5596 5604 5613 5621 5631 5640 5650 5660 5669 5677 5685 5693 5699 5707 5714 5721 5729 5737 5745
5723 5708 5693 5679 5664 5650 5637 5626 5615 5605 5596 5588 5582 5576 5572 5569 5567 5565 5564 5563 5563 5563 5564 5566 5571 5578 5586 5594 5604 5616 5628 5639 5648 5658 5668 5676 5684 5691 5700 5707 5714 5723 5732
5707 5692 5676 5661 5646 5632 5620 5610 5600 5590 5582 5574 5567 5560 5556 5552 5550 5548 5547 5547 5546 5546 5546 5547 5549 5554 5560 5568 5579 5591 5605 5616 5627 5637 5647 5658 5667 5676 5684 5692 5699 5708 5717
5691 5675 5659 5644 5629 5615 5603 5592 5581 5572 5563 5556 5549 5543 5538 5534 5531 5530 5529 5529 5529 5529 5530 5530 5532 5534 5538 5544 5553 5565 5580 5594 5601 5615 5626 5637 5649 5658 5667 5677 5684 5693 5702
5676 5660 5644 5628 5613 5599 5587 5576 5565 5556 5547 5539 5533 5526 5520 5515 5512 5510 5509 5509 5510 5511 5512 5514 5515 5517 5521 5525 5529 5539 5553 5565 5579 5594 5605 5617 5627 5638 5649 5660 5669 5678 5687
5661 5644 5628 5613 5599 5585 5572 5561 5550 5541 5532 5524 5517 5510 5504 5498 5493 5490 5489 5489 5490 5491 5493 5496 5498 5500 5504 5508 5511 5517 5527 5539 5554 5570 5583 5594 5606 5619 5631 5642 5653 5663 5672
5647 5631 5615 5600 5586 5572 5560 5548 5538 5528 5519 5511 5503 5496 5489 5483 5477 5473 5470 5469 5469 5471 5473 5476 5480 5483 5486 5490 5494 5498 5505 5514 5528 5545 5561 5573 5585 5600 5612 5625 5636 5647 5657
5634 5618 5603 5589 5575 5562 5549 5538 5527 5516 5507 5498 5490 5482 5475 5469 5463 5458 5454 5452 5451 5451 5453 5456 5460 5465 5469 5473 5477 5480 5485 5493 5505 5519 5537 5551 5563 5580 5593 5606 5618 5631 5642